Overview Statistics Trail Chart Weather Telemetry Raw packets
 

This is the latest recevied weather packets stored in our database for station/object SA7AHC. If no packets are shown the sender has not sent any weather packets the latest 10 day(s).

<< 41 42 43 44 45 46 47 >>
Time Temp. Humidity Pressure Rain* Wind** Luminosity Snow
1788000551 17.78° C 81% 1007.7 hPa 0 mm - 350 W/m² -
1787999955 17.78° C 82% 1007.7 hPa 0 mm - 285 W/m² -
1787999349 17.22° C 82% 1007.7 hPa 0 mm - 190 W/m² -
1787998741 17.22° C 83% 1007.8 hPa 0 mm - 281 W/m² -
1787998144 17.22° C 85% 1007.8 hPa 0 mm - 311 W/m² -
1787997542 16.67° C 85% 1007.7 hPa 0 mm - 243 W/m² -
1787996931 17.22° C 83% 1007.7 hPa 0 mm - 37 W/m² -
1787996331 17.22° C 83% 1007.6 hPa 0 mm - 151 W/m² -
1787995731 17.78° C 83% 1007.6 hPa 0 mm - 192 W/m² -
1787995131 17.22° C 86% 1007.5 hPa 0 mm - 232 W/m² -
1787994531 17.22° C 86% 1007.5 hPa 0 mm - 211 W/m² -
1787993931 17.78° C 85% 1007.5 hPa 0 mm - 139 W/m² -
1787993331 17.22° C 84% 1007.5 hPa 0 mm - 232 W/m² -
1787992731 17.22° C 86% 1007.4 hPa 0 mm - 297 W/m² -
1787992114 17.22° C 88% 1007.4 hPa 0 mm - 195 W/m² -
1787991515 16.67° C 89% 1007.4 hPa 0 mm - 330 W/m² -
1787990914 16.67° C 90% 1007.3 hPa 0 mm - 111 W/m² -
1787990313 16.67° C 90% 1007.3 hPa 0 mm - 77 W/m² -
1787989712 16.67° C 90% 1007.2 hPa 0 mm - 83 W/m² -
1787989110 16.67° C 91% 1007.2 hPa 0 mm - 95 W/m² -
1787988510 16.67° C 92% 1007.2 hPa 0 mm - 100 W/m² -
1787987914 16.67° C 93% 1007.3 hPa 0 mm - 127 W/m² -
1787987310 16.11° C 94% 1007.1 hPa 0 mm - 109 W/m² -
1787986709 16.11° C 94% 1007.1 hPa 0 mm - 139 W/m² -
1787986106 16.11° C 94% 1007 hPa 0 mm - 97 W/m² -

* Rain latest hour (hover to see other rain measurements)
** Current wind speed in m/s (hover to see current wind gust speed)